(298453) = 2003 UA78

Discovered at Kitt Peak on 2003-10-17 by Spacewatch.

Orbit

Orbit type: Main Belt

Note: WebGL enabled browser required.

epoch2023-02-25.0
epoch JD2460000.5
perihelion date2020-08-20.15039
perihelion JD2459081.65039
argument of perihelion (°)72.53091
ascending node (°)341.36011
inclination (°)3.74175
eccentricity0.2021819
perihelion distance (AU)2.0631397
Tisserand w.r.t. Jupiter3.4
ΔV w.r.t. Earth (km/sec)9.1
semimajor axis (AU)2.5859777
mean anomaly (°)217.77656
mean daily motion (°/day)0.23701000
aphelion distance (AU)3.109
period (years)4.16
P-vector [x]0.58867307
P-vector [y]0.71470230
P-vector [z]0.37770973
Q-vector [x]-0.80810207
Q-vector [y]0.53234436
Q-vector [z]0.25215180
absolute magnitude16.84
phase slope0.15
uncertainty0
referenceMPO 745323
observations used400
oppositions15
arc length (days)7208
first opposition used2003
last opposition used2023
residual rms (arc-secs)0.73
perturbers coarse indicatorM-v
perturbers precise indicator003Ek
first observation date used2003-09-22.0
last observation date used2023-06-17.0
computer nameMPCLINUX
JD of orbit computation2456819.573035
perihelion JD uncertainty (days)1.5138E-04
argument of perihelion uncertainty (°)9.6177E-05
ascending node uncertainty (°)9.0711E-05
inclination uncertainty (°)7.3062E-06
eccentricity uncertainty 6.0498E-08
perihelion distance uncertainty (AU)1.5850E-07
Minimum Orbit Intersection Distances (in AU)
for orbit epoch: 2460000.5, reference: E2023-M35
Mercury1.75018
Venus1.34492
Earth1.0766
Mars0.55895
Jupiter2.27343
Saturn6.71786
Uranus15.5744
Neptune27.4969

Observations

406 total observations over interval: 2003 09 22.34066 – 2023 06 17.467973
These data are available for download (format description).

Date (UT) J2000 RA J2000 Dec Magn Location Ref
2003 09 22.34066 02 18 14.17 +18 03 02.7 19.2   644 – Palomar Mountain/NEAT MPS 89672
2003 09 22.35294 02 18 13.96 +18 03 04.1 19.3   644 – Palomar Mountain/NEAT MPS 89672
2003 09 22.36753 02 18 13.73 +18 03 06.1 19.3   644 – Palomar Mountain/NEAT MPS 89672
2003 09 22.44088 02 18 12.44 +18 03 15.6 20.2 V 691 – Steward Observatory, Kitt Peak-Spacewatch MPS 89672
2003 09 22.46006 02 18 12.12 +18 03 18.1 20.1 V 691 – Steward Observatory, Kitt Peak-Spacewatch MPS 89672
2003 09 22.48107 02 18 11.77 +18 03 20.8 20.2 V 691 – Steward Observatory, Kitt Peak-Spacewatch MPS 89672
2003 10 17.41616 02 03 11.27 +18 04 45.7 19.4 V 691 – Steward Observatory, Kitt Peak-Spacewatch MPS 89672
2003 10 17.44449 02 03 09.70 +18 04 42.1 19.5 V 691 – Steward Observatory, Kitt Peak-Spacewatch MPS 89672
2003 10 17.47131 02 03 08.23 +18 04 38.6 19.5 V 691 – Steward Observatory, Kitt Peak-Spacewatch MPS 89672
2003 10 20.41376 02 00 30.01 +17 58 04.5 19.0   644 – Palomar Mountain/NEAT MPS 89672
2003 10 20.43477 02 00 28.75 +17 58 01.4 18.8   644 – Palomar Mountain/NEAT MPS 89672
2003 10 20.45814 02 00 27.44 +17 57 57.9 19.4   644 – Palomar Mountain/NEAT MPS 89672
2003 10 21.27973 01 59 42.70 +17 55 54.6 19.2   704 – Lincoln Laboratory ETS, New Mexico MPS 89672
2003 10 21.31798 01 59 40.54 +17 55 49.2 19.7   704 – Lincoln Laboratory ETS, New Mexico MPS 89672
2003 10 21.33037 01 59 39.83 +17 55 47.0 19.4   704 – Lincoln Laboratory ETS, New Mexico MPS 89672
2003 10 24.29225 01 56 55.09 +17 47 37.3 19.1   704 – Lincoln Laboratory ETS, New Mexico MPS 89672
2003 10 24.30530 01 56 54.30 +17 47 35.7 19.3   704 – Lincoln Laboratory ETS, New Mexico MPS 89672
2003 10 24.31846 01 56 53.50 +17 47 32.7 19.4   704 – Lincoln Laboratory ETS, New Mexico MPS 89672
2003 10 24.33170 01 56 52.72 +17 47 30.0 19.5   704 – Lincoln Laboratory ETS, New Mexico MPS 89672
2003 10 24.34403 01 56 51.98 +17 47 28.0 19.7   704 – Lincoln Laboratory ETS, New Mexico MPS 89672
2003 10 25.26238 01 56 00.73 +17 44 42.9 19.0   704 – Lincoln Laboratory ETS, New Mexico MPS 89672
2003 10 25.27463 01 56 00.03 +17 44 40.5 18.9   704 – Lincoln Laboratory ETS, New Mexico MPS 89672
2003 10 25.28682 01 55 59.28 +17 44 39.1 19.1   704 – Lincoln Laboratory ETS, New Mexico MPS 89672
2003 10 25.29932 01 55 58.54 +17 44 36.4 19.0   704 – Lincoln Laboratory ETS, New Mexico MPS 89672
2003 10 25.31147 01 55 57.83 +17 44 33.6 18.8   704 – Lincoln Laboratory ETS, New Mexico MPS 89672
2003 10 27.31338 01 54 05.62 +17 38 17.2 19.2 V 691 – Steward Observatory, Kitt Peak-Spacewatch MPS 89672
2003 10 27.34659 01 54 03.65 +17 38 10.7 19.2 V 691 – Steward Observatory, Kitt Peak-Spacewatch MPS 89672
2003 10 27.37374 01 54 02.06 +17 38 05.2 19.3 V 691 – Steward Observatory, Kitt Peak-Spacewatch MPS 89672
2003 10 29.13945 01 52 24.22 +17 32 12.8 18.4 R 699 – Lowell Observatory-LONEOS MPS 90605
2003 10 29.15942 01 52 23.11 +17 32 08.3   699 – Lowell Observatory-LONEOS MPS 90605
2003 10 29.17933 01 52 21.99 +17 32 04.8   699 – Lowell Observatory-LONEOS MPS 90605
2003 10 29.19928 01 52 20.82 +17 32 01.0   699 – Lowell Observatory-LONEOS MPS 90605
2003 11 01.24939 01 49 33.67 +17 21 22.6 18.7   704 – Lincoln Laboratory ETS, New Mexico MPS 90605
2003 11 01.25440 01 49 33.38 +17 21 20.8 18.7   704 – Lincoln Laboratory ETS, New Mexico MPS 90605
2003 11 01.26140 01 49 33.00 +17 21 20.9 19.4   704 – Lincoln Laboratory ETS, New Mexico MPS 90605
2003 11 01.26671 01 49 32.73 +17 21 18.3 19.1   704 – Lincoln Laboratory ETS, New Mexico MPS 90605
2003 11 01.27343 01 49 32.31 +17 21 16.9 19.5   704 – Lincoln Laboratory ETS, New Mexico MPS 90605
2003 11 01.27973 01 49 32.02 +17 21 15.7 19.2   704 – Lincoln Laboratory ETS, New Mexico MPS 90605
2003 11 01.28551 01 49 31.57 +17 21 15.3 19.0   704 – Lincoln Laboratory ETS, New Mexico MPS 90605
2003 11 01.29313 01 49 31.17 +17 21 12.4 18.8   704 – Lincoln Laboratory ETS, New Mexico MPS 90605
2003 11 01.29760 01 49 30.90 +17 21 12.4 19.4   704 – Lincoln Laboratory ETS, New Mexico MPS 90605
2003 11 02.18763 01 48 43.59 +17 17 58.6 18.7   704 – Lincoln Laboratory ETS, New Mexico MPS 90605
2003 11 02.19992 01 48 42.88 +17 17 56.8 19.4   704 – Lincoln Laboratory ETS, New Mexico MPS 90605
2003 11 02.21187 01 48 42.23 +17 17 53.9 19.5   704 – Lincoln Laboratory ETS, New Mexico MPS 90605
2003 11 02.22388 01 48 41.62 +17 17 51.5 19.2   704 – Lincoln Laboratory ETS, New Mexico MPS 90605
2003 11 02.23591 01 48 40.89 +17 17 49.3 19.2   704 – Lincoln Laboratory ETS, New Mexico MPS 90605
2003 11 02.25194 01 48 39.98 +17 17 45.5 18.4   704 – Lincoln Laboratory ETS, New Mexico MPS 90605
2003 11 02.26398 01 48 39.25 +17 17 42.7 19.3   704 – Lincoln Laboratory ETS, New Mexico MPS 90605
2003 11 02.27603 01 48 38.60 +17 17 39.8 19.1   704 – Lincoln Laboratory ETS, New Mexico MPS 90605
2003 11 02.28835 01 48 37.97 +17 17 37.7 18.3   704 – Lincoln Laboratory ETS, New Mexico MPS 90605
2003 11 02.30072 01 48 37.27 +17 17 35.0 19.0   704 – Lincoln Laboratory ETS, New Mexico MPS 90605
2003 11 18.22127 01 36 57.44 +16 20 16.7 19.0 R 699 – Lowell Observatory-LONEOS MPS 92766
2003 11 18.24109 01 36 56.82 +16 20 12.1   699 – Lowell Observatory-LONEOS MPS 92766
2003 11 18.26099 01 36 56.16 +16 20 08.6   699 – Lowell Observatory-LONEOS MPS 92766
2003 11 18.28085 01 36 55.39 +16 20 04.8   699 – Lowell Observatory-LONEOS MPS 92766
2003 11 20.20648 01 35 57.74 +16 14 03.3 19.2   704 – Lincoln Laboratory ETS, New Mexico MPS 91055
2003 11 20.21973 01 35 57.25 +16 14 00.2 19.9   704 – Lincoln Laboratory ETS, New Mexico MPS 91055
2003 11 20.23270 01 35 56.89 +16 13 57.3 19.7   704 – Lincoln Laboratory ETS, New Mexico MPS 91055
2003 11 20.24554 01 35 56.53 +16 13 55.3 19.6   704 – Lincoln Laboratory ETS, New Mexico MPS 91055
2003 11 20.25856 01 35 56.07 +16 13 53.2 19.9   704 – Lincoln Laboratory ETS, New Mexico MPS 91055
2003 11 23.10361 01 34 44.08 +16 05 38.5 20.4 V 691 – Steward Observatory, Kitt Peak-Spacewatch MPS 91874
2003 11 23.13737 01 34 43.25 +16 05 33.3 20.5 V 691 – Steward Observatory, Kitt Peak-Spacewatch MPS 91874
2003 11 23.16625 01 34 42.50 +16 05 28.0 20.7 V 691 – Steward Observatory, Kitt Peak-Spacewatch MPS 91874
2003 11 24.18806 01 34 20.35 +16 02 44.0 19.1 C 704 – Lincoln Laboratory ETS, New Mexico MPS 290177
2003 11 24.21438 01 34 19.84 +16 02 39.9 18.9 C 704 – Lincoln Laboratory ETS, New Mexico MPS 290177
2003 11 24.22686 01 34 19.60 +16 02 39.3 18.9 C 704 – Lincoln Laboratory ETS, New Mexico MPS 290177
2003 11 24.23927 01 34 19.25 +16 02 35.9 19.3 C 704 – Lincoln Laboratory ETS, New Mexico MPS 290177
2003 11 26.18326 01 33 43.67 +15 57 47.1 19.2 R 699 – Lowell Observatory-LONEOS MPS 91874
2003 11 26.20319 01 33 43.26 +15 57 44.8   699 – Lowell Observatory-LONEOS MPS 91874
2003 11 26.22296 01 33 42.81 +15 57 42.2   699 – Lowell Observatory-LONEOS MPS 91874
2003 11 26.24268 01 33 42.51 +15 57 39.3   699 – Lowell Observatory-LONEOS MPS 91874
2003 12 13.09601 01 34 04.18 +15 39 39.4 20.1 V 703 – Catalina Sky Survey MPS 93729
2003 12 13.11322 01 34 04.34 +15 39 40.7 20.0 V 703 – Catalina Sky Survey MPS 93729
2003 12 13.13042 01 34 04.75 +15 39 40.9 19.2 V 703 – Catalina Sky Survey MPS 93729
2003 12 13.14763 01 34 04.91 +15 39 39.9 20.2 V 703 – Catalina Sky Survey MPS 93729
2005 03 11.33560 12 07 38.51 -02 37 13.4 20.2 R G96 – Mt. Lemmon Survey MPS 130735
2005 03 11.34233 12 07 38.14 -02 37 11.7 19.7 R G96 – Mt. Lemmon Survey MPS 130735
2005 03 11.34902 12 07 37.77 -02 37 09.9 20.3 R G96 – Mt. Lemmon Survey MPS 130735
2005 03 11.35575 12 07 37.44 -02 37 08.2 20.2 R G96 – Mt. Lemmon Survey MPS 130735
2005 04 02.26474 11 48 08.38 -00 55 48.5 20.2 R 926 – Tenagra II Observatory, Nogales MPS 130735
2005 04 02.28334 11 48 07.44 -00 55 43.3 20.4 R 926 – Tenagra II Observatory, Nogales MPS 130735
2005 04 02.30273 11 48 06.47 -00 55 38.5 20.6 R 926 – Tenagra II Observatory, Nogales MPS 130735
2005 04 05.29649 11 45 43.20 -00 42 41.4 20.1 R G96 – Mt. Lemmon Survey MPS 130735
2005 04 05.30243 11 45 42.89 -00 42 39.6 20.5 R G96 – Mt. Lemmon Survey MPS 130735
2005 04 05.30838 11 45 42.62 -00 42 38.3 19.4 R G96 – Mt. Lemmon Survey MPS 130735
2005 04 05.31431 11 45 42.34 -00 42 36.0 19.8 R G96 – Mt. Lemmon Survey MPS 130735
